Location: Edoum�
(0.9447°N, 10.6482°E)
Time: 07:37:47
(UTC+00:00)

Ariane 3 Deb - Pass Details

Date: 02 October 2020
Orbit: 229 x 18408 km, 6.8° (Epoch: 21 October)

Event Time Altitude Azimuth Distance (km) Brightness Sun altitude
Exits shadow 02:48:01 61° 338° (NNW) 1,814 4.6 -34.7°
Maximum altitude 02:49:05 65° 9° (N) 1,978 4.9 -34.4°
Drops below altitude 10° 03:30:17 10° 87° (E) 14,022 10.5 -24.1°
Sets 04:19:09 0° 91° (E) 21,500 12.5 -11.9°
